SR3WXA Weather Reports


time (UTC)temp
C
wind
direction
speed
KPH
gust
KPH
rain 1hr
cm
rain 24hr
cm
rain mn
cm
humidity
%
barometer
mb
20200708141228 16 243 12.9 22.5 0.00 0.08 0.08 69 1014.8
20200708140811 16 252 12.9 25.7 0.00 0.08 0.08 69 1014.8
20200708140727 16 252 12.9 25.7 0.00 0.08 0.08 69 1014.8
20200708140219 15 245 12.9 27.4 0.00 0.08 0.08 69 1014.6
20200708135841 16 251 9.7 20.9 0.00 0.08 0.08 70 1014.8
20200708135727 16 251 9.7 20.9 0.00 0.08 0.08 70 1014.8
20200708135331 16 254 11.3 20.9 0.00 0.08 0.08 70 1014.8
20200708135227 16 254 11.3 20.9 0.00 0.08 0.08 70 1014.8
20200708134012 16 229 9.7 22.5 0.00 0.08 0.08 69 1014.7
20200708133927 16 229 9.7 22.5 0.00 0.08 0.08 69 1014.7
20200708133550 16 246 11.3 24.1 0.00 0.08 0.08 69 1014.7
20200708133425 16 246 11.3 24.1 0.00 0.08 0.08 69 1014.7
20200708133159 15 252 6.4 24.1 0.00 0.08 0.08 69 1014.6
20200708133052 16 258 6.4 24.1 0.00 0.08 0.08 69 1014.8
20200708132925 16 258 6.4 24.1 0.00 0.08 0.08 69 1014.8
20200708132510 16 232 9.7 22.5 0.00 0.08 0.08 69 1014.8
20200708132425 16 232 9.7 22.5 0.00 0.08 0.08 69 1014.8
20200708132102 16 236 12.9 22.5 0.00 0.08 0.08 69 1014.9
20200708131927 16 236 12.9 22.5 0.00 0.08 0.08 69 1014.9
20200708131504 16 251 8.0 22.5 0.00 0.08 0.08 70 1014.8
20200708131425 16 251 8.0 22.5 0.00 0.08 0.08 70 1014.8
20200708130703 15 244 4.8 17.7 0.00 0.08 0.08 71 1014.8
20200708130426 15 244 4.8 17.7 0.00 0.08 0.08 71 1014.8
20200708130124 15 246 8.0 19.3 0.00 0.08 0.08 70 1014.9
20200708125926 15 246 8.0 19.3 0.00 0.08 0.08 70 1014.9
20200708125534 15 232 9.7 20.9 0.00 0.08 0.08 70 1014.9
20200708125426 15 232 9.7 20.9 0.00 0.08 0.08 70 1014.9
20200708125020 15 250 6.4 22.5 0.00 0.08 0.08 70 1014.8
20200708124926 15 250 6.4 22.5 0.00 0.08 0.08 70 1014.8
20200708124532 15 251 9.7 22.5 0.00 0.08 0.08 69 1014.8
20200708124426 15 251 9.7 22.5 0.00 0.08 0.08 69 1014.8
20200708124019 15 251 9.7 17.7 0.00 0.08 0.08 69 1014.8
20200708123925 15 251 9.7 17.7 0.00 0.08 0.08 69 1014.8
20200708123555 15 222 11.3 20.9 0.00 0.08 0.08 69 1014.8
20200708123426 15 222 11.3 20.9 0.00 0.08 0.08 69 1014.8
20200708123210 15 254 6.4 20.9 0.00 0.08 0.08 70 1014.6
20200708123032 15 255 11.3 20.9 0.00 0.08 0.08 69 1014.8
20200708122926 15 255 11.3 20.9 0.00 0.08 0.08 69 1014.8
20200708120226 15 263 14.5 19.3 0.00 0.08 0.08 71 1014.5
20200708114930 15 217 9.7 20.9 0.00 0.08 0.08 70 1014.8
20200708114639 15 226 9.7 22.5 0.00 0.08 0.08 70 1014.5
20200708114430 15 228 6.4 22.5 0.00 0.08 0.08 70 1014.8
20200708113232 15 231 14.5 25.7 0.00 0.08 0.08 69 1014.6
20200708112650 15 243 9.7 22.5 0.00 0.08 0.08 69 1014.8
20200708112413 15 243 9.7 22.5 0.00 0.08 0.08 69 1014.8
20200708112022 15 225 12.9 24.1 0.00 0.08 0.08 69 1014.8
20200708111912 15 225 12.9 24.1 0.00 0.08 0.08 69 1014.8
20200708111630 15 214 12.9 20.9 0.00 0.08 0.08 69 1014.6
20200708111513 15 237 12.9 24.1 0.00 0.08 0.08 69 1014.9
20200708111418 15 237 12.9 24.1 0.00 0.08 0.08 69 1014.9
20200708111047 15 225 16.1 24.1 0.00 0.08 0.08 69 1014.8
20200708110912 15 225 16.1 24.1 0.00 0.08 0.08 69 1014.8
20200708110537 15 239 16.1 25.7 0.00 0.08 0.08 69 1014.8
20200708110413 15 239 16.1 25.7 0.00 0.08 0.08 69 1014.8
20200708110128 15 223 16.1 24.1 0.00 0.08 0.08 68 1014.7
20200708110042 15 251 14.5 27.4 0.00 0.08 0.08 68 1014.8
20200708105913 15 251 14.5 27.4 0.00 0.08 0.08 68 1014.8
20200708105526 15 238 14.5 32.2 0.00 0.08 0.08 67 1014.8
20200708105413 15 238 14.5 32.2 0.00 0.08 0.08 67 1014.8
20200708105037 15 258 12.9 32.2 0.00 0.08 0.08 67 1014.8
20200708104912 15 258 12.9 32.2 0.00 0.08 0.08 67 1014.8
20200708103635 15 245 17.7 29.0 0.00 0.08 0.08 67 1014.8
20200708103446 15 245 17.7 29.0 0.00 0.08 0.08 67 1014.8
20200708103058 15 277 9.7 27.4 0.00 0.08 0.08 66 1014.6
20200708102535 15 254 14.5 27.4 0.00 0.08 0.08 66 1014.8
20200708102445 15 254 14.5 27.4 0.00 0.08 0.08 66 1014.8
20200708101944 15 244 14.5 27.4 0.00 0.08 0.08 68 1014.7
20200708101626 15 269 9.7 22.5 0.00 0.08 0.08 69 1014.5
20200708101539 15 216 8.0 22.5 0.00 0.08 0.08 68 1014.7
20200708101445 15 216 8.0 22.5 0.00 0.08 0.08 68 1014.7
20200708101058 15 260 11.3 22.5 0.00 0.08 0.08 69 1014.7
20200708100943 15 260 11.3 22.5 0.00 0.08 0.08 69 1014.7
20200708100139 14 244 12.9 22.5 0.00 0.08 0.08 70 1014.5
20200708100123 15 255 12.9 20.9 0.00 0.08 0.08 70 1014.7
20200708095834 15 255 12.9 20.9 0.00 0.08 0.08 70 1014.7
20200708094829 15 258 11.3 22.5 0.00 0.08 0.08 70 1014.6
20200708094033 15 254 12.9 25.7 0.00 0.08 0.08 68 1014.5
20200708093827 15 254 12.9 25.7 0.00 0.08 0.08 68 1014.5
20200708093151 15 241 11.3 27.4 0.00 0.08 0.08 69 1014.5
20200708093038 15 244 11.3 27.4 0.00 0.08 0.08 70 1014.3
20200708092826 15 241 11.3 27.4 0.00 0.08 0.08 69 1014.5
20200708091614 15 259 11.3 22.5 0.00 0.08 0.08 70 1014.3
20200708091047 15 253 14.5 25.7 0.00 0.08 0.08 68 1014.6
20200708090836 15 253 14.5 25.7 0.00 0.08 0.08 68 1014.6
20200708090519 15 231 11.3 25.7 0.00 0.08 0.08 70 1014.6
20200708090340 15 231 11.3 25.7 0.00 0.08 0.08 70 1014.6
20200708090108 15 243 14.5 27.4 0.00 0.08 0.08 71 1014.3
20200708090053 15 280 11.3 25.7 0.00 0.08 0.08 73 1014.5
20200708085837 15 280 11.3 25.7 0.00 0.08 0.08 73 1014.5
20200708085418 15 258 11.3 24.1 0.00 0.08 0.08 73 1014.6
20200708085339 15 254 9.7 25.7 0.00 0.08 0.08 73 1014.6
20200708085337 15 258 11.3 24.1 0.00 0.08 0.08 73 1014.6
20200708084837 15 254 9.7 25.7 0.00 0.08 0.08 73 1014.6
20200708084820 15 253 16.1 25.7 0.00 0.08 0.08 72 1014.6
20200708084336 15 253 16.1 25.7 0.00 0.08 0.08 72 1014.6
20200708084118 15 263 12.9 25.7 0.00 0.08 0.08 73 1014.6
20200708083836 15 263 12.9 25.7 0.00 0.08 0.08 73 1014.6
20200708083324 15 282 8.0 29.0 0.00 0.08 0.08 73 1014.6
20200708083058 15 282 8.0 29.0 0.00 0.08 0.08 73 1014.6
20200708082817 15 248 14.5 29.0 0.00 0.08 0.08 73 1014.7
20200708082556 15 248 14.5 29.0 0.00 0.08 0.08 73 1014.7
20200708081933 14 300 11.3 19.3 0.00 0.08 0.08 75 1014.3
20200708081748 15 273 11.3 19.3 0.00 0.08 0.08 75 1014.5
20200708081556 15 273 11.3 19.3 0.00 0.08 0.08 75 1014.5
20200708081057 14 264 9.7 19.3 0.00 0.08 0.08 75 1014.5
20200708080721 14 234 4.8 19.3 0.00 0.08 0.08 76 1014.4
20200708080556 14 234 4.8 19.3 0.00 0.08 0.08 76 1014.4
20200708080112 14 262 9.7 24.1 0.00 0.08 0.08 76 1014.3
20200708080056 14 265 9.7 24.1 0.00 0.08 0.08 76 1014.5
20200708075557 14 255 12.9 24.1 0.00 0.08 0.08 75 1014.5
20200708074640 14 265 8.0 22.5 0.00 0.08 0.08 76 1014.2
20200708074226 15 270 11.3 22.5 0.00 0.08 0.08 76 1014.4
20200708073727 15 257 9.7 22.5 0.00 0.08 0.08 77 1014.4
20200708073227 14 256 11.3 22.5 0.00 0.08 0.08 77 1014.3
20200708071501 14 227 12.9 25.7 0.00 0.08 0.08 80 1014.3
20200708071000 13 252 8.0 25.7 0.00 0.08 0.08 81 1014.4
20200708070501 13 262 9.7 20.9 0.00 0.08 0.08 82 1014.4
20200708070130 13 227 11.3 22.5 0.00 0.08 0.08 83 1014.1
20200708070000 13 247 11.3 20.9 0.00 0.08 0.08 83 1014.3
20200708065736 13 240 12.9 25.7 0.00 0.08 0.08 84 1014.4
20200708065500 13 240 12.9 25.7 0.00 0.08 0.08 84 1014.4
20200708065000 13 266 14.5 25.7 0.00 0.08 0.08 84 1014.4
20200708064108 13 248 11.3 20.9 0.00 0.08 0.08 86 1014.4
20200708064001 13 248 11.3 20.9 0.00 0.08 0.08 86 1014.4
20200708063502 13 262 6.4 25.7 0.00 0.08 0.08 86 1014.4
20200708063001 13 255 14.5 27.4 0.00 0.08 0.08 86 1014.5
20200708062603 13 244 9.7 27.4 0.00 0.08 0.08 86 1014.5
20200708062500 13 244 9.7 27.4 0.00 0.08 0.08 86 1014.5
20200708061500 12 248 14.5 22.5 0.00 0.08 0.08 87 1014.4
20200708061000 12 265 9.7 22.5 0.00 0.08 0.08 88 1014.3
20200708060122 12 290 6.4 20.9 0.03 0.08 0.08 89 1014.0
20200708054510 12 250 9.7 25.7 0.03 0.08 0.08 90 1013.8
20200708054050 12 248 16.1 25.7 0.03 0.08 0.08 91 1014.1
20200708054000 12 248 16.1 25.7 0.03 0.08 0.08 91 1014.1
20200708052541 12 237 14.5 25.7 0.03 0.08 0.08 91 1014.1
20200708052500 12 237 14.5 25.7 0.03 0.08 0.08 91 1014.1
20200708052001 12 255 12.9 24.1 0.03 0.08 0.08 92 1014.0
20200708051710 12 238 11.3 20.9 0.03 0.08 0.08 92 1013.7
20200708051133 12 240 12.9 24.1 0.03 0.08 0.08 92 1013.9
20200708050741 12 267 12.9 24.1 0.00 0.05 0.05 92 1013.9
20200708050632 12 267 12.9 24.1 0.00 0.05 0.05 92 1013.9
20200708050234 12 237 9.7 19.3 0.00 0.05 0.05 92 1013.9
20200708050133 12 237 9.7 19.3 0.00 0.05 0.05 92 1013.9
20200708050108 12 219 9.7 19.3 0.00 0.05 0.05 92 1013.6
20200708045706 12 242 4.8 19.3 0.00 0.05 0.05 93 1013.9
20200708045634 12 242 4.8 19.3 0.00 0.05 0.05 93 1013.9
20200708045301 12 225 8.0 19.3 0.00 0.05 0.05 93 1013.9
20200708045132 12 225 8.0 19.3 0.00 0.05 0.05 93 1013.9
20200708044745 12 245 6.4 19.3 0.00 0.05 0.05 93 1013.9
20200708044632 12 245 6.4 19.3 0.00 0.05 0.05 93 1013.9
20200708044132 12 231 11.3 19.3 0.00 0.05 0.05 93 1014.0
20200708043722 12 235 11.3 19.3 0.00 0.05 0.05 93 1014.1
20200708043633 12 235 11.3 19.3 0.00 0.05 0.05 93 1014.1
20200708043242 12 238 9.7 19.3 0.00 0.05 0.05 93 1014.0
20200708043135 11 274 11.3 19.3 0.00 0.05 0.05 93 1013.7
20200708043133 12 238 9.7 19.3 0.00 0.05 0.05 93 1014.0
20200708042729 12 245 8.0 17.7 0.00 0.05 0.05 93 1014.0
20200708042633 12 245 8.0 17.7 0.00 0.05 0.05 93 1014.0
20200708042232 12 279 4.8 17.7 0.00 0.05 0.05 93 1014.0
20200708042132 12 279 4.8 17.7 0.00 0.05 0.05 93 1014.0
20200708041739 11 221 9.7 16.1 0.00 0.05 0.05 93 1013.7
20200708041727 12 225 8.0 16.1 0.00 0.05 0.05 93 1014.0
20200708041633 12 225 8.0 16.1 0.00 0.05 0.05 93 1014.0
20200708040946 12 224 11.3 17.7 0.00 0.05 0.05 93 1014.0
20200708040519 12 231 3.2 17.7 0.00 0.05 0.05 93 1014.0
20200708040445 12 231 3.2 17.7 0.00 0.05 0.05 93 1014.0
20200708040400 11 229 11.3 17.7 0.00 0.05 0.05 93 1013.8
20200708040017 12 223 6.4 16.1 0.00 0.05 0.05 93 1014.0
20200708035945 12 223 6.4 16.1 0.00 0.05 0.05 93 1014.0
20200708035024 12 255 6.4 14.5 0.00 0.05 0.05 93 1014.0
20200708034944 12 255 6.4 14.5 0.00 0.05 0.05 93 1014.0
20200708034531 12 213 6.4 16.1 0.00 0.05 0.05 92 1014.0
20200708034445 12 213 6.4 16.1 0.00 0.05 0.05 92 1014.0
20200708033945 12 216 8.0 16.1 0.00 0.05 0.05 92 1014.0
20200708033521 12 258 3.2 16.1 0.03 0.05 0.05 92 1014.0
20200708033446 12 258 3.2 16.1 0.03 0.05 0.05 92 1014.0
20200708033235 11 250 8.0 14.5 0.03 0.05 0.05 92 1013.7
20200708032944 12 223 9.7 16.1 0.03 0.05 0.05 92 1013.9
20200708032246 11 225 8.0 16.1 0.03 0.05 0.05 93 1014.0
20200708032118 11 225 8.0 16.1 0.03 0.05 0.05 93 1014.0
20200708031624 11 225 3.2 14.5 0.03 0.05 0.05 93 1013.8
20200708030812 11 243 4.8 16.1 0.03 0.05 0.05 93 1014.0
20200708030725 11 243 4.8 16.1 0.03 0.05 0.05 93 1014.0
20200708030105 11 236 3.2 12.9 0.03 0.05 0.05 93 1013.9
20200708025725 12 234 6.4 12.9 0.03 0.05 0.05 93 1014.1
20200708025226 12 230 6.4 17.7 0.03 0.05 0.05 92 1014.1
20200708024806 12 229 6.4 17.7 0.03 0.05 0.05 92 1014.2
20200708024726 12 229 6.4 17.7 0.03 0.05 0.05 92 1014.2
20200708024225 12 253 3.2 16.1 0.05 0.05 0.05 92 1014.2
20200708023817 12 243 3.2 17.7 0.05 0.05 0.05 92 1014.1
20200708023727 12 243 3.2 17.7 0.05 0.05 0.05 92 1014.1
20200708023304 12 230 9.7 17.7 0.03 0.03 0.03 92 1014.2
20200708023225 12 230 9.7 17.7 0.03 0.03 0.03 92 1014.2
20200708023125 11 231 9.7 16.1 0.03 0.03 0.03 92 1014.0
20200708022826 12 234 6.4 12.9 0.03 0.03 0.03 92 1014.2
20200708022726 12 234 6.4 12.9 0.03 0.03 0.03 92 1014.2
20200708021833 12 235 4.8 12.9 0.03 0.03 0.03 92 1014.2
20200708021727 12 235 4.8 12.9 0.03 0.03 0.03 92 1014.2
20200708021640 11 238 8.0 12.9 0.03 0.03 0.03 92 1014.0
20200708021329 12 251 4.8 16.1 0.03 0.03 0.03 92 1014.3
20200708021226 12 251 4.8 16.1 0.03 0.03 0.03 92 1014.3
20200708020726 12 259 4.8 16.1 0.03 0.03 0.03 92 1014.4
20200708020323 12 231 6.4 12.9 0.03 0.03 0.03 92 1014.4
20200708020225 12 231 6.4 12.9 0.03 0.03 0.03 92 1014.4
20200708020154 11 235 6.4 12.9 0.03 0.03 0.03 91 1014.2
20200708015510 12 277 4.8 12.9 0.03 0.03 0.03 91 1014.5
20200708015427 12 277 4.8 12.9 0.03 0.03 0.03 91 1014.5
20200708015014 12 268 4.8 14.5 0.03 0.03 0.03 91 1014.6
20200708014925 12 268 4.8 14.5 0.03 0.03 0.03 91 1014.6
20200708014426 12 267 6.4 14.5 0.03 0.03 0.03 90 1014.6
20200708014006 12 258 1.6 14.5 0.00 0.00 0.00 90 1014.6
20200708013928 12 258 1.6 14.5 0.00 0.00 0.00 90 1014.6
20200708013538 12 257 1.6 17.7 0.00 0.00 0.00 89 1014.7
20200708013425 12 257 1.6 17.7 0.00 0.00 0.00 89 1014.7
20200708012925 12 272 8.0 19.3 0.00 0.00 0.00 89 1014.6
20200708012425 12 276 4.8 19.3 0.00 0.00 0.00 88 1014.7
20200708012002 12 273 6.4 14.5 0.00 0.00 0.00 87 1014.8
20200708011925 12 273 6.4 14.5 0.00 0.00 0.00 87 1014.8
20200708011644 12 265 9.7 17.7 0.00 0.00 0.00 86 1014.6
20200708011406 12 266 6.4 17.7 0.00 0.00 0.00 86 1014.8
20200708010450 12 293 6.4 25.7 0.00 0.00 0.00 83 1014.7
20200708010406 12 293 6.4 25.7 0.00 0.00 0.00 83 1014.7
20200708010142 12 265 11.3 25.7 0.00 0.00 0.00 82 1014.5
20200708005940 13 294 12.9 25.7 0.00 0.00 0.00 81 1014.6
20200708005906 13 294 12.9 25.7 0.00 0.00 0.00 81 1014.6
20200708004406 13 268 12.9 25.7 0.00 0.00 0.00 71 1014.5
20200708003906 14 290 12.9 29.0 0.00 0.00 0.00 69 1014.5
20200708003406 14 268 17.7 29.0 0.00 0.00 0.00 67 1014.4
20200708002725 14 276 16.1 25.7 0.00 0.00 0.00 64 1014.4
20200708002635 14 276 16.1 25.7 0.00 0.00 0.00 64 1014.4
20200708002248 15 257 14.5 25.7 0.00 0.00 0.00 62 1014.3
20200708002135 15 257 14.5 25.7 0.00 0.00 0.00 62 1014.3
20200708001701 15 270 11.3 20.9 0.00 0.00 0.00 60 1013.9
20200708001635 15 255 11.3 20.9 0.00 0.00 0.00 60 1014.2
20200708001135 15 252 4.8 11.3 0.00 0.00 0.00 60 1013.8
20200708000245 15 216 3.2 8.0 0.00 0.00 0.00 60 1013.6
20200708000212 15 212 3.2 8.0 0.00 0.00 0.00 60 1013.8
20200708000135 15 212 3.2 8.0 0.00 0.00 0.00 60 1013.8
20200707235248 15 199 1.6 11.3 0.00 0.00 0.00 59 1013.7
20200707235135 15 199 1.6 11.3 0.00 0.00 0.00 59 1013.7
20200707234634 15 181 3.2 11.3 0.00 0.00 0.00 59 1013.7
20200707234218 15 205 1.6 8.0 0.00 0.00 0.00 58 1013.8
20200707234134 15 205 1.6 8.0 0.00 0.00 0.00 58 1013.8
20200707233635 15 0 0.0 8.0 0.00 0.00 0.00 58 1013.7
20200707233232 15 188 1.6 9.7 0.00 0.00 0.00 58 1013.7
20200707233136 15 188 1.6 9.7 0.00 0.00 0.00 58 1013.7
20200707232716 15 190 1.6 11.3 0.00 0.00 0.00 58 1013.8
20200707232635 15 190 1.6 11.3 0.00 0.00 0.00 58 1013.8
20200707232327 15 171 6.4 11.3 0.00 0.00 0.00 58 1013.7
20200707232136 15 171 6.4 11.3 0.00 0.00 0.00 58 1013.7
20200707231715 15 196 1.6 8.0 0.00 0.00 0.00 58 1013.6
20200707231635 15 195 3.2 8.0 0.00 0.00 0.00 58 1013.8
20200707231218 15 0 0.0 11.3 0.00 0.00 0.00 58 1013.9
20200707231135 15 0 0.0 11.3 0.00 0.00 0.00 58 1013.9
20200707230634 15 194 1.6 11.3 0.00 0.00 0.00 58 1014.0
20200707230211 15 207 3.2 6.4 0.00 0.00 0.00 58 1014.0
20200707230143 15 207 3.2 6.4 0.00 0.00 0.00 58 1013.8
20200707230135 15 207 3.2 6.4 0.00 0.00 0.00 58 1014.0
20200707225721 15 0 0.0 9.7 0.00 0.00 0.00 58 1014.1
20200707225634 15 0 0.0 9.7 0.00 0.00 0.00 58 1014.1
20200707225240 15 205 1.6 9.7 0.00 0.00 0.00 59 1014.1
20200707225135 15 205 1.6 9.7 0.00 0.00 0.00 59 1014.1
20200707224746 15 0 0.0 6.4 0.00 0.00 0.00 59 1014.2
20200707224635 15 0 0.0 6.4 0.00 0.00 0.00 59 1014.2
20200707224612 15 197 1.6 6.4 0.00 0.00 0.00 59 1014.0
20200707224241 15 196 1.6 4.8 0.00 0.00 0.00 59 1014.1
20200707224134 15 196 1.6 4.8 0.00 0.00 0.00 59 1014.1
20200707223239 15 196 1.6 8.0 0.00 0.00 0.00 59 1014.1
20200707223100 15 197 0.0 9.7 0.00 0.00 0.00 59 1013.9
20200707222740 15 196 3.2 9.7 0.00 0.00 0.00 58 1014.2
20200707222244 15 192 3.2 9.7 0.00 0.00 0.00 58 1014.3
20200707221738 15 208 3.2 9.7 0.00 0.00 0.00 58 1014.2
20200707221238 15 212 1.6 8.0 0.00 0.00 0.00 58 1014.3
20200707220739 15 213 1.6 6.4 0.00 0.00 0.00 58 1014.4
20200707220241 15 0 0.0 6.4 0.00 0.00 0.00 58 1014.3
20200707220134 15 215 1.6 6.4 0.00 0.00 0.00 58 1014.1
20200707215739 15 0 0.0 6.4 0.00 0.00 0.00 58 1014.4
20200707215239 15 214 1.6 6.4 0.00 0.00 0.00 58 1014.4
20200707214751 15 214 1.6 8.0 0.00 0.00 0.00 58 1014.3
20200707214708 15 214 1.6 8.0 0.00 0.00 0.00 58 1014.3
20200707213746 16 0 0.0 4.8 0.00 0.00 0.00 57 1014.3
20200707213707 16 0 0.0 4.8 0.00 0.00 0.00 57 1014.3
20200707213308 16 214 1.6 4.8 0.00 0.00 0.00 57 1014.3
20200707213207 16 214 1.6 4.8 0.00 0.00 0.00 57 1014.3
20200707212747 16 214 1.6 4.8 0.00 0.00 0.00 56 1014.4
20200707212707 16 214 1.6 4.8 0.00 0.00 0.00 56 1014.4
20200707212247 16 0 0.0 4.8 0.00 0.00 0.00 56 1014.4
20200707212212 16 0 0.0 4.8 0.00 0.00 0.00 56 1014.4
20200707211706 16 0 0.0 8.0 0.00 0.00 0.00 56 1014.4
20200707210707 16 216 1.6 4.8 0.00 0.00 0.00 56 1014.5
20200707210103 16 218 1.6 9.7 0.00 0.00 0.00 56 1014.3
20200707205812 16 0 0.0 9.7 0.00 0.00 0.00 56 1014.5
20200707205716 16 0 0.0 9.7 0.00 0.00 0.00 56 1014.5
20200707205346 16 219 1.6 9.7 0.00 0.00 0.00 56 1014.6
20200707205215 16 219 1.6 9.7 0.00 0.00 0.00 56 1014.6
20200707204347 16 220 1.6 6.4 0.00 0.00 0.00 55 1014.6
20200707204214 16 220 1.6 6.4 0.00 0.00 0.00 55 1014.6
20200707203755 16 0 0.0 4.8 0.00 0.00 0.00 55 1014.7
20200707203714 16 0 0.0 4.8 0.00 0.00 0.00 55 1014.7
20200707203131 16 220 0.0 4.8 0.00 0.00 0.00 55 1014.6
20200707202258 16 0 0.0 6.4 0.00 0.00 0.00 55 1014.8
20200707202214 16 0 0.0 6.4 0.00 0.00 0.00 55 1014.8
20200707201806 17 0 0.0 6.4 0.00 0.00 0.00 54 1014.8
20200707201717 17 0 0.0 6.4 0.00 0.00 0.00 54 1014.8
20200707201521 16 220 1.6 6.4 0.00 0.00 0.00 54 1014.8
20200707200308 17 0 0.0 4.8 0.00 0.00 0.00 53 1015.0
20200707200213 17 0 0.0 4.8 0.00 0.00 0.00 53 1015.0
20200707195714 17 221 1.6 6.4 0.00 0.00 0.00 53 1015.0
20200707195250 17 221 1.6 8.0 0.00 0.00 0.00 52 1015.2
20200707195215 17 221 1.6 8.0 0.00 0.00 0.00 52 1015.2
20200707194548 17 221 3.2 11.3 0.00 0.00 0.00 51 1015.0
20200707194248 17 222 3.2 11.3 0.00 0.00 0.00 51 1015.2
20200707194213 17 222 3.2 11.3 0.00 0.00 0.00 51 1015.2
20200707193323 17 232 4.8 11.3 0.00 0.00 0.00 51 1015.2
20200707193255 17 238 4.8 11.3 0.00 0.00 0.00 51 1015.0
20200707193213 17 232 4.8 11.3 0.00 0.00 0.00 51 1015.2
20200707192713 17 227 3.2 9.7 0.00 0.00 0.00 51 1015.2
20200707192214 17 224 4.8 9.7 0.00 0.00 0.00 51 1015.2
20200707191714 17 220 3.2 11.3 0.00 0.00 0.00 50 1015.3
20200707191641 17 217 4.8 12.9 0.00 0.00 0.00 50 1015.1
20200707191215 17 243 1.6 11.3 0.00 0.00 0.00 50 1015.2
20200707190515 17 234 4.8 11.3 0.00 0.00 0.00 49 1015.2
20200707190438 17 234 4.8 11.3 0.00 0.00 0.00 49 1015.2
20200707190243 17 229 3.2 9.7 0.00 0.00 0.00 49 1015.1
20200707185943 17 226 3.2 9.7 0.00 0.00 0.00 49 1015.2
20200707184937 18 236 3.2 14.5 0.00 0.00 0.00 49 1015.0
20200707184519 18 239 4.8 16.1 0.00 0.00 0.00 48 1015.0
20200707184437 18 239 4.8 16.1 0.00 0.00 0.00 48 1015.0
20200707184116 18 239 6.4 16.1 0.00 0.00 0.00 48 1015.0
20200707183938 18 239 6.4 16.1 0.00 0.00 0.00 48 1015.0
20200707183438 18 238 4.8 11.3 0.00 0.00 0.00 48 1015.0
20200707183201 18 226 3.2 9.7 0.00 0.00 0.00 48 1014.9
20200707182437 18 226 3.2 12.9 0.00 0.00 0.00 48 1015.0
20200707181619 18 0 0.0 12.9 0.00 0.00 0.00 48 1015.1
20200707181437 18 0 0.0 12.9 0.00 0.00 0.00 48 1015.1
20200707181022 18 253 3.2 12.9 0.00 0.00 0.00 47 1015.0
20200707180938 18 253 3.2 12.9 0.00 0.00 0.00 47 1015.0
20200707180418 18 267 6.4 17.7 0.00 0.00 0.00 47 1015.0
20200707180118 18 300 8.0 17.7 0.00 0.00 0.00 46 1014.9
20200707175536 18 237 8.0 14.5 0.00 0.00 0.00 45 1015.1
20200707175419 18 237 8.0 14.5 0.00 0.00 0.00 45 1015.1
20200707174718 18 281 6.4 19.3 0.00 0.00 0.00 44 1014.9
20200707174510 19 240 6.4 19.3 0.00 0.00 0.00 44 1015.0
20200707174418 19 240 6.4 19.3 0.00 0.00 0.00 44 1015.0
20200707174207 19 259 4.8 16.1 0.00 0.00 0.00 44 1015.1
20200707173918 19 259 4.8 16.1 0.00 0.00 0.00 44 1015.1
20200707173608 19 269 8.0 19.3 0.00 0.00 0.00 44 1015.2
20200707173419 19 269 8.0 19.3 0.00 0.00 0.00 44 1015.2
20200707173246 18 247 11.3 20.9 0.00 0.00 0.00 44 1015.2
20200707173205 18 279 11.3 19.3 0.00 0.00 0.00 44 1015.0
20200707172922 18 247 11.3 20.9 0.00 0.00 0.00 44 1015.2
20200707172653 19 248 9.7 25.7 0.00 0.00 0.00 43 1015.1
20200707172419 19 248 9.7 25.7 0.00 0.00 0.00 43 1015.1
20200707172103 19 245 8.0 25.7 0.00 0.00 0.00 43 1015.2
20200707171919 19 245 8.0 25.7 0.00 0.00 0.00 43 1015.2
20200707171709 19 255 9.7 17.7 0.00 0.00 0.00 43 1015.3
20200707171555 19 219 11.3 25.7 0.00 0.00 0.00 43 1015.1
20200707171418 19 255 9.7 17.7 0.00 0.00 0.00 43 1015.3
20200707171153 19 266 11.3 19.3 0.00 0.00 0.00 43 1015.4
20200707170918 19 266 11.3 19.3 0.00 0.00 0.00 43 1015.4
20200707170654 19 254 9.7 24.1 0.00 0.00 0.00 43 1015.3
20200707170418 19 254 9.7 24.1 0.00 0.00 0.00 43 1015.3
20200707170218 18 216 11.3 24.1 0.00 0.00 0.00 43 1015.2
20200707165653 19 232 9.7 25.7 0.00 0.00 0.00 42 1015.4
20200707165419 19 232 9.7 25.7 0.00 0.00 0.00 42 1015.4
20200707165012 20 249 16.1 25.7 0.00 0.00 0.00 41 1015.4
20200707164918 20 249 16.1 25.7 0.00 0.00 0.00 41 1015.4
20200707164457 20 271 11.3 20.9 0.00 0.00 0.00 41 1015.4
20200707164420 20 271 11.3 20.9 0.00 0.00 0.00 41 1015.4
20200707164153 20 242 4.8 19.3 0.00 0.00 0.00 42 1015.4
20200707163919 20 242 4.8 19.3 0.00 0.00 0.00 42 1015.4
20200707163520 19 298 3.2 19.3 0.00 0.00 0.00 44 1015.3
20200707163418 19 298 3.2 19.3 0.00 0.00 0.00 44 1015.3
20200707163147 19 293 9.7 19.3 0.00 0.00 0.00 43 1015.4
20200707163043 19 338 9.7 19.3 0.00 0.00 0.00 43 1015.3
20200707162919 19 293 9.7 19.3 0.00 0.00 0.00 43 1015.4
20200707162527 19 281 9.7 17.7 0.00 0.00 0.00 43 1015.5
20200707162420 19 281 9.7 17.7 0.00 0.00 0.00 43 1015.5
20200707161953 19 316 4.8 14.5 0.00 0.00 0.00 45 1015.5
20200707161918 19 316 4.8 14.5 0.00 0.00 0.00 45 1015.5
20200707161736 18 272 8.0 14.5 0.00 0.00 0.00 44 1015.4
20200707161653 19 302 4.8 14.5 0.00 0.00 0.00 44 1015.5
20200707161419 19 302 4.8 14.5 0.00 0.00 0.00 44 1015.5
20200707161153 19 281 3.2 11.3 0.00 0.00 0.00 44 1015.4
20200707160919 19 281 3.2 11.3 0.00 0.00 0.00 44 1015.4
20200707160557 18 261 1.6 17.7 0.00 0.00 0.00 44 1015.4
20200707160419 18 261 1.6 17.7 0.00 0.00 0.00 44 1015.4
20200707160210 18 263 6.4 20.9 0.00 0.00 0.00 44 1015.4
20200707160050 19 282 9.7 17.7 0.00 0.00 0.00 44 1015.5
20200707155919 19 282 9.7 17.7 0.00 0.00 0.00 44 1015.5
20200707155405 19 288 12.9 20.9 0.00 0.00 0.00 43 1015.5
20200707154906 20 252 8.0 17.7 0.00 0.00 0.00 44 1015.5
20200707154745 19 271 9.7 17.7 0.00 0.00 0.00 44 1015.4
20200707154404 19 245 11.3 17.7 0.00 0.00 0.00 45 1015.5
20200707153455 19 285 12.9 27.4 0.00 0.00 0.00 45 1015.7
20200707153406 19 285 12.9 27.4 0.00 0.00 0.00 45 1015.7
20200707153233 19 288 11.3 27.4 0.00 0.00 0.00 45 1015.6
20200707153007 19 259 9.7 16.1 0.00 0.00 0.00 45 1015.7
20200707152906 19 259 9.7 16.1 0.00 0.00 0.00 45 1015.7
20200707151637 19 289 6.4 22.5 0.00 0.00 0.00 46 1015.8
20200707151435 19 289 6.4 22.5 0.00 0.00 0.00 46 1015.8
20200707151207 19 315 6.4 22.5 0.00 0.00 0.00 46 1015.9
20200707150936 19 315 6.4 22.5 0.00 0.00 0.00 46 1015.9
20200707150652 19 303 4.8 14.5 0.00 0.00 0.00 47 1015.9
20200707150436 19 303 4.8 14.5 0.00 0.00 0.00 47 1015.9
20200707150143 19 336 6.4 16.1 0.00 0.00 0.00 46 1015.9
20200707150014 18 316 4.8 16.1 0.00 0.00 0.00 46 1015.8
20200707145935 19 336 6.4 16.1 0.00 0.00 0.00 46 1015.9
20200707145529 19 290 4.8 16.1 0.00 0.00 0.00 47 1016.0
20200707145436 19 290 4.8 16.1 0.00 0.00 0.00 47 1016.0
20200707144715 18 313 6.4 17.7 0.00 0.00 0.00 47 1015.9
20200707144521 19 269 8.0 17.7 0.00 0.00 0.00 46 1016.0
20200707144435 19 269 8.0 17.7 0.00 0.00 0.00 46 1016.0
20200707143232 18 269 12.9 24.1 0.00 0.00 0.00 46 1016.0
20200707143153 18 257 14.5 24.1 0.00 0.00 0.00 45 1015.8
20200707142947 18 269 12.9 24.1 0.00 0.00 0.00 46 1016.0
20200707142539 18 257 8.0 24.1 0.00 0.00 0.00 47 1016.1
20200707142444 18 257 8.0 24.1 0.00 0.00 0.00 47 1016.1
20200707142153 18 332 6.4 16.1 0.00 0.00 0.00 48 1016.1
20200707141945 18 332 6.4 16.1 0.00 0.00 0.00 48 1016.1